| time (UTC) | temp C | wind direction | speed KPH | gust KPH | rain 1hr cm | rain 24hr cm | rain mn cm | humidity % | barometer mb |
| 20260902153516 | 27 | 242 | 4.8 | 12.9 | 0.00 | 0.00 | 0.00 | 75 | 1018.0 |
| 20260902153017 | 27 | 269 | 6.4 | 12.9 | 0.00 | 0.00 | 0.00 | 75 | 1018.0 |
| 20260902152516 | 27 | 266 | 4.8 | 12.9 | 0.00 | 0.00 | 0.00 | 75 | 1018.0 |
| 20260902152016 | 27 | 229 | 4.8 | 16.1 | 0.00 | 0.00 | 0.00 | 74 | 1018.1 |
| 20260902151516 | 27 | 270 | 9.7 | 16.1 | 0.00 | 0.00 | 0.00 | 74 | 1018.1 |
| 20260902151036 | 27 | 183 | 4.8 | 16.1 | 0.00 | 0.00 | 0.00 | 74 | 1018.2 |
| 20260902150536 | 27 | 177 | 6.4 | 16.1 | 0.00 | 0.00 | 0.00 | 74 | 1018.2 |
| 20260902150017 | 27 | 237 | 4.8 | 12.9 | 0.00 | 0.00 | 0.00 | 75 | 1018.2 |
| 20260902145516 | 27 | 255 | 4.8 | 12.9 | 0.00 | 0.00 | 0.00 | 74 | 1018.3 |
| 20260902145016 | 27 | 255 | 8.0 | 12.9 | 0.00 | 0.00 | 0.00 | 74 | 1018.2 |
| 20260902144516 | 27 | 270 | 8.0 | 12.9 | 0.00 | 0.00 | 0.00 | 74 | 1018.1 |
| 20260902144016 | 27 | 231 | 4.8 | 12.9 | 0.00 | 0.00 | 0.00 | 74 | 1018.2 |
| 20260902143516 | 27 | 260 | 8.0 | 12.9 | 0.00 | 0.00 | 0.00 | 75 | 1018.2 |
| 20260902143016 | 27 | 261 | 6.4 | 12.9 | 0.00 | 0.00 | 0.00 | 74 | 1018.2 |
| 20260902142516 | 27 | 252 | 8.0 | 12.9 | 0.00 | 0.00 | 0.00 | 73 | 1018.3 |
| 20260902142016 | 27 | 261 | 8.0 | 14.5 | 0.00 | 0.00 | 0.00 | 72 | 1018.2 |
| 20260902141516 | 28 | 259 | 6.4 | 14.5 | 0.00 | 0.00 | 0.00 | 73 | 1018.2 |
| 20260902141016 | 28 | 258 | 8.0 | 12.9 | 0.00 | 0.00 | 0.00 | 72 | 1018.3 |
| 20260902140516 | 28 | 251 | 3.2 | 12.9 | 0.00 | 0.00 | 0.00 | 73 | 1018.4 |
| 20260902140016 | 28 | 217 | 6.4 | 14.5 | 0.00 | 0.00 | 0.00 | 73 | 1018.5 |
| 20260902135516 | 28 | 255 | 6.4 | 14.5 | 0.00 | 0.00 | 0.00 | 72 | 1018.5 |
| 20260902135016 | 28 | 215 | 6.4 | 14.5 | 0.00 | 0.00 | 0.00 | 72 | 1018.6 |
| 20260902134536 | 28 | 233 | 4.8 | 20.9 | 0.00 | 0.00 | 0.00 | 73 | 1018.6 |
| 20260902134016 | 28 | 265 | 8.0 | 20.9 | 0.00 | 0.00 | 0.00 | 72 | 1018.7 |
| 20260902133516 | 28 | 248 | 6.4 | 12.9 | 0.00 | 0.00 | 0.00 | 72 | 1018.6 |
| 20260902133016 | 28 | 147 | 4.8 | 12.9 | 0.00 | 0.00 | 0.00 | 73 | 1018.7 |
| 20260902132516 | 27 | 174 | 4.8 | 12.9 | 0.00 | 0.00 | 0.00 | 73 | 1018.6 |
| 20260902132037 | 27 | 168 | 6.4 | 16.1 | 0.00 | 0.00 | 0.00 | 73 | 1018.6 |
| 20260902131556 | 27 | 194 | 8.0 | 16.1 | 0.00 | 0.00 | 0.00 | 73 | 1018.7 |
| 20260902131016 | 27 | 240 | 6.4 | 17.7 | 0.00 | 0.00 | 0.00 | 74 | 1018.7 |
| 20260902130516 | 27 | 260 | 8.0 | 17.7 | 0.00 | 0.00 | 0.00 | 73 | 1018.6 |
| 20260902130037 | 27 | 260 | 8.0 | 16.1 | 0.00 | 0.00 | 0.00 | 73 | 1018.7 |
| 20260902125517 | 27 | 251 | 6.4 | 12.9 | 0.00 | 0.00 | 0.00 | 74 | 1018.8 |
| 20260902125016 | 27 | 244 | 3.2 | 12.9 | 0.00 | 0.00 | 0.00 | 75 | 1018.9 |
| 20260902124516 | 27 | 239 | 4.8 | 17.7 | 0.00 | 0.00 | 0.00 | 76 | 1018.9 |
| 20260902124016 | 27 | 260 | 9.7 | 17.7 | 0.00 | 0.00 | 0.00 | 75 | 1018.9 |
| 20260902123516 | 27 | 261 | 9.7 | 14.5 | 0.00 | 0.00 | 0.00 | 75 | 1019.0 |
| 20260902123037 | 27 | 274 | 8.0 | 14.5 | 0.00 | 0.00 | 0.00 | 76 | 1019.1 |
| 20260902122516 | 27 | 263 | 8.0 | 14.5 | 0.00 | 0.00 | 0.00 | 76 | 1019.1 |
| 20260902122016 | 27 | 264 | 8.0 | 16.1 | 0.00 | 0.00 | 0.00 | 75 | 1019.1 |
| 20260902121556 | 27 | 270 | 8.0 | 16.1 | 0.00 | 0.00 | 0.00 | 75 | 1019.2 |
| 20260902121016 | 27 | 220 | 4.8 | 14.5 | 0.00 | 0.00 | 0.00 | 75 | 1019.2 |
| 20260902120516 | 27 | 218 | 8.0 | 14.5 | 0.00 | 0.00 | 0.00 | 75 | 1019.2 |
| 20260902120016 | 27 | 199 | 4.8 | 11.3 | 0.00 | 0.00 | 0.00 | 75 | 1019.2 |
| 20260902115516 | 27 | 247 | 4.8 | 11.3 | 0.00 | 0.00 | 0.00 | 76 | 1019.1 |
| 20260902115017 | 27 | 97 | 3.2 | 8.0 | 0.00 | 0.00 | 0.00 | 76 | 1019.2 |
| 20260902114516 | 27 | 130 | 3.2 | 17.7 | 0.00 | 0.00 | 0.00 | 76 | 1019.2 |
| 20260902114016 | 27 | 268 | 4.8 | 17.7 | 0.00 | 0.00 | 0.00 | 76 | 1019.2 |
| 20260902113516 | 27 | 166 | 3.2 | 11.3 | 0.00 | 0.00 | 0.00 | 76 | 1019.2 |
| 20260902113036 | 27 | 193 | 3.2 | 12.9 | 0.00 | 0.00 | 0.00 | 75 | 1019.3 |
| 20260902112516 | 27 | 167 | 6.4 | 12.9 | 0.00 | 0.00 | 0.00 | 75 | 1019.3 |
| 20260902112016 | 27 | 133 | 3.2 | 11.3 | 0.00 | 0.00 | 0.00 | 76 | 1019.3 |
| 20260902111516 | 27 | 129 | 4.8 | 11.3 | 0.00 | 0.00 | 0.00 | 76 | 1019.3 |
| 20260902111036 | 27 | 129 | 6.4 | 16.1 | 0.00 | 0.00 | 0.00 | 76 | 1019.3 |
| 20260902110517 | 27 | 160 | 6.4 | 16.1 | 0.00 | 0.00 | 0.00 | 76 | 1019.4 |
| 20260902110016 | 27 | 158 | 6.4 | 14.5 | 0.00 | 0.00 | 0.00 | 76 | 1019.4 |
| 20260902105516 | 27 | 163 | 6.4 | 14.5 | 0.00 | 0.00 | 0.00 | 76 | 1019.3 |
| 20260902105016 | 27 | 161 | 6.4 | 14.5 | 0.00 | 0.00 | 0.00 | 76 | 1019.4 |
| 20260902104516 | 27 | 165 | 6.4 | 14.5 | 0.00 | 0.00 | 0.00 | 75 | 1019.5 |
| 20260902104016 | 27 | 152 | 6.4 | 14.5 | 0.00 | 0.00 | 0.00 | 75 | 1019.5 |
| 20260902103516 | 27 | 144 | 8.0 | 14.5 | 0.00 | 0.00 | 0.00 | 75 | 1019.6 |
| 20260902103015 | 27 | 135 | 6.4 | 14.5 | 0.00 | 0.00 | 0.00 | 75 | 1019.6 |
| 20260902102516 | 27 | 140 | 6.4 | 14.5 | 0.00 | 0.00 | 0.00 | 76 | 1019.6 |
| 20260902102016 | 27 | 147 | 6.4 | 14.5 | 0.00 | 0.00 | 0.00 | 76 | 1019.6 |
| 20260902101515 | 27 | 144 | 8.0 | 14.5 | 0.00 | 0.00 | 0.00 | 76 | 1019.6 |
| 20260902101016 | 27 | 159 | 9.7 | 14.5 | 0.00 | 0.00 | 0.00 | 76 | 1019.6 |
| 20260902100515 | 27 | 161 | 8.0 | 14.5 | 0.00 | 0.00 | 0.00 | 75 | 1019.6 |
| 20260902100021 | 27 | 137 | 6.4 | 19.3 | 0.00 | 0.00 | 0.00 | 75 | 1019.7 |
| 20260902095515 | 27 | 150 | 8.0 | 19.3 | 0.00 | 0.00 | 0.00 | 75 | 1019.7 |
| 20260902095036 | 27 | 124 | 8.0 | 17.7 | 0.00 | 0.00 | 0.00 | 76 | 1019.7 |
| 20260902094516 | 27 | 171 | 4.8 | 14.5 | 0.00 | 0.00 | 0.00 | 76 | 1019.7 |
| 20260902094015 | 27 | 184 | 6.4 | 16.1 | 0.00 | 0.00 | 0.00 | 76 | 1019.7 |
| 20260902093516 | 27 | 188 | 4.8 | 16.1 | 0.00 | 0.00 | 0.00 | 76 | 1019.7 |
| 20260902093016 | 26 | 265 | 6.4 | 14.5 | 0.00 | 0.00 | 0.00 | 76 | 1019.7 |
| 20260902092516 | 26 | 207 | 1.6 | 12.9 | 0.00 | 0.00 | 0.00 | 77 | 1019.7 |
| 20260902092015 | 26 | 217 | 6.4 | 12.9 | 0.00 | 0.00 | 0.00 | 77 | 1019.7 |
| 20260902091515 | 26 | 208 | 4.8 | 14.5 | 0.00 | 0.00 | 0.00 | 77 | 1019.7 |
| 20260902091015 | 26 | 253 | 4.8 | 14.5 | 0.00 | 0.00 | 0.00 | 78 | 1019.7 |
| 20260902090515 | 26 | 249 | 4.8 | 11.3 | 0.00 | 0.00 | 0.00 | 78 | 1019.7 |
| 20260902090016 | 26 | 257 | 6.4 | 11.3 | 0.00 | 0.00 | 0.00 | 78 | 1019.6 |
| 20260902085515 | 26 | 239 | 4.8 | 9.7 | 0.00 | 0.00 | 0.00 | 78 | 1019.6 |
| 20260902085015 | 26 | 239 | 4.8 | 6.4 | 0.00 | 0.00 | 0.00 | 77 | 1019.6 |
| 20260902084515 | 26 | 252 | 3.2 | 6.4 | 0.00 | 0.00 | 0.00 | 77 | 1019.6 |
| 20260902084016 | 26 | 271 | 3.2 | 6.4 | 0.00 | 0.00 | 0.00 | 77 | 1019.5 |
| 20260902083516 | 26 | 174 | 1.6 | 6.4 | 0.00 | 0.00 | 0.00 | 76 | 1019.5 |
| 20260902083035 | 26 | 233 | 3.2 | 11.3 | 0.00 | 0.00 | 0.00 | 76 | 1019.5 |
| 20260902082516 | 26 | 245 | 4.8 | 11.3 | 0.00 | 0.00 | 0.00 | 76 | 1019.4 |
| 20260902082015 | 26 | 267 | 3.2 | 9.7 | 0.00 | 0.00 | 0.00 | 76 | 1019.3 |
| 20260902081516 | 26 | 249 | 4.8 | 9.7 | 0.00 | 0.00 | 0.00 | 75 | 1019.3 |
| 20260902081015 | 26 | 263 | 4.8 | 11.3 | 0.00 | 0.00 | 0.00 | 75 | 1019.2 |
| 20260902080515 | 26 | 257 | 6.4 | 11.3 | 0.00 | 0.00 | 0.00 | 75 | 1019.2 |
| 20260902080055 | 26 | 240 | 6.4 | 11.3 | 0.00 | 0.00 | 0.00 | 74 | 1019.1 |
| 20260902075517 | 27 | 250 | 6.4 | 11.3 | 0.00 | 0.00 | 0.00 | 73 | 1019.1 |
| 20260902075035 | 27 | 262 | 6.4 | 11.3 | 0.00 | 0.00 | 0.00 | 72 | 1019.0 |
| 20260902074516 | 27 | 295 | 1.6 | 4.8 | 0.00 | 0.00 | 0.00 | 71 | 1018.9 |
| 20260902074015 | 27 | 77 | 1.6 | 6.4 | 0.00 | 0.00 | 0.00 | 71 | 1018.9 |
| 20260902073535 | 27 | 63 | 3.2 | 6.4 | 0.00 | 0.00 | 0.00 | 71 | 1018.9 |
| 20260902073017 | 26 | 93 | 0.0 | 4.8 | 0.00 | 0.00 | 0.00 | 71 | 1018.9 |
| 20260902072515 | 26 | 106 | 1.6 | 6.4 | 0.00 | 0.00 | 0.00 | 71 | 1018.8 |
| 20260902072035 | 26 | 107 | 3.2 | 6.4 | 0.00 | 0.00 | 0.00 | 72 | 1018.9 |
| 20260902071515 | 26 | 105 | 1.6 | 6.4 | 0.00 | 0.00 | 0.00 | 72 | 1018.7 |
| 20260902071015 | 25 | 82 | 3.2 | 6.4 | 0.00 | 0.00 | 0.00 | 73 | 1018.8 |
| 20260902070515 | 25 | 82 | 3.2 | 6.4 | 0.00 | 0.00 | 0.00 | 73 | 1018.9 |
| 20260902070016 | 25 | 84 | 1.6 | 6.4 | 0.00 | 0.00 | 0.00 | 74 | 1018.9 |
| 20260902065535 | 25 | 108 | 1.6 | 6.4 | 0.00 | 0.00 | 0.00 | 75 | 1019.0 |
| 20260902065015 | 25 | 109 | 3.2 | 6.4 | 0.00 | 0.00 | 0.00 | 75 | 1019.1 |
| 20260902064515 | 24 | 96 | 3.2 | 6.4 | 0.00 | 0.00 | 0.00 | 76 | 1019.1 |
| 20260902064015 | 24 | 100 | 3.2 | 6.4 | 0.00 | 0.00 | 0.00 | 76 | 1019.1 |
| 20260902063515 | 23 | 113 | 3.2 | 8.0 | 0.00 | 0.00 | 0.00 | 77 | 1019.1 |
| 20260902063016 | 23 | 88 | 1.6 | 8.0 | 0.00 | 0.00 | 0.00 | 77 | 1019.0 |
| 20260902062515 | 23 | 83 | 3.2 | 9.7 | 0.00 | 0.00 | 0.00 | 78 | 1019.0 |
| 20260902062015 | 23 | 88 | 3.2 | 9.7 | 0.00 | 0.00 | 0.00 | 78 | 1019.0 |
| 20260902061515 | 23 | 102 | 1.6 | 9.7 | 0.00 | 0.00 | 0.00 | 78 | 1019.0 |
| 20260902061015 | 23 | 82 | 4.8 | 11.3 | 0.00 | 0.00 | 0.00 | 78 | 1019.0 |
| 20260902060515 | 23 | 76 | 4.8 | 11.3 | 0.00 | 0.00 | 0.00 | 79 | 1019.0 |
| 20260902060015 | 22 | 81 | 3.2 | 9.7 | 0.00 | 0.00 | 0.00 | 79 | 1019.0 |
| 20260902055515 | 22 | 78 | 1.6 | 4.8 | 0.00 | 0.00 | 0.00 | 80 | 1018.9 |
| 20260902055015 | 22 | 112 | 1.6 | 3.2 | 0.00 | 0.00 | 0.00 | 80 | 1018.9 |
| 20260902054535 | 22 | 130 | 0.0 | 6.4 | 0.00 | 0.00 | 0.00 | 80 | 1018.9 |
| 20260902054015 | 22 | 73 | 1.6 | 6.4 | 0.00 | 0.00 | 0.00 | 80 | 1018.8 |
| 20260902053515 | 22 | 94 | 1.6 | 9.7 | 0.00 | 0.00 | 0.00 | 80 | 1018.7 |
| 20260902053016 | 22 | 103 | 3.2 | 11.3 | 0.00 | 0.00 | 0.00 | 80 | 1018.7 |
| 20260902052515 | 22 | 91 | 4.8 | 11.3 | 0.00 | 0.00 | 0.00 | 80 | 1018.7 |
| 20260902052015 | 22 | 108 | 3.2 | 9.7 | 0.00 | 0.00 | 0.00 | 80 | 1018.6 |
| 20260902051515 | 21 | 117 | 3.2 | 6.4 | 0.00 | 0.00 | 0.00 | 80 | 1018.5 |
| 20260902051035 | 21 | 101 | 1.6 | 8.0 | 0.00 | 0.00 | 0.00 | 80 | 1018.6 |
| 20260902050515 | 21 | 112 | 3.2 | 8.0 | 0.00 | 0.00 | 0.00 | 80 | 1018.6 |
| 20260902045515 | 21 | 106 | 3.2 | 9.7 | 0.00 | 0.00 | 0.00 | 80 | 1018.7 |
| 20260902045015 | 21 | 103 | 3.2 | 9.7 | 0.00 | 0.00 | 0.00 | 80 | 1018.6 |
| 20260902044515 | 22 | 87 | 3.2 | 11.3 | 0.00 | 0.00 | 0.00 | 79 | 1018.6 |
| 20260902044015 | 22 | 82 | 3.2 | 11.3 | 0.00 | 0.00 | 0.00 | 79 | 1018.5 |
| 20260902043515 | 22 | 80 | 6.4 | 11.3 | 0.00 | 0.00 | 0.00 | 79 | 1018.5 |
| 20260902043015 | 22 | 82 | 3.2 | 6.4 | 0.00 | 0.00 | 0.00 | 79 | 1018.5 |
| 20260902042515 | 22 | 91 | 3.2 | 6.4 | 0.00 | 0.00 | 0.00 | 79 | 1018.5 |
| 20260902042015 | 22 | 79 | 3.2 | 6.4 | 0.00 | 0.00 | 0.00 | 79 | 1018.5 |
| 20260902041515 | 22 | 78 | 3.2 | 6.4 | 0.00 | 0.00 | 0.00 | 79 | 1018.5 |
| 20260902041015 | 22 | 91 | 3.2 | 6.4 | 0.00 | 0.00 | 0.00 | 79 | 1018.5 |
| 20260902040555 | 22 | 79 | 3.2 | 6.4 | 0.00 | 0.00 | 0.00 | 79 | 1018.4 |
| 20260902040015 | 22 | 78 | 3.2 | 6.4 | 0.00 | 0.00 | 0.00 | 79 | 1018.4 |
| 20260902035515 | 22 | 99 | 3.2 | 9.7 | 0.00 | 0.00 | 0.00 | 78 | 1018.4 |
| 20260902035015 | 22 | 106 | 3.2 | 9.7 | 0.00 | 0.00 | 0.00 | 78 | 1018.4 |
| 20260902034515 | 22 | 99 | 3.2 | 6.4 | 0.00 | 0.00 | 0.00 | 78 | 1018.3 |
| 20260902034015 | 22 | 106 | 1.6 | 8.0 | 0.00 | 0.00 | 0.00 | 78 | 1018.3 |
| 20260902033515 | 22 | 84 | 3.2 | 8.0 | 0.00 | 0.00 | 0.00 | 78 | 1018.3 |
| 20260902033015 | 22 | 76 | 3.2 | 9.7 | 0.00 | 0.00 | 0.00 | 78 | 1018.3 |
| 20260902032515 | 22 | 95 | 1.6 | 9.7 | 0.00 | 0.00 | 0.00 | 78 | 1018.4 |
| 20260902032015 | 22 | 92 | 1.6 | 6.4 | 0.00 | 0.00 | 0.00 | 78 | 1018.5 |
| 20260902031515 | 22 | 77 | 1.6 | 4.8 | 0.00 | 0.00 | 0.00 | 78 | 1018.4 |
| 20260902031015 | 22 | 98 | 1.6 | 4.8 | 0.00 | 0.00 | 0.00 | 78 | 1018.4 |
| 20260902030515 | 22 | 116 | 1.6 | 4.8 | 0.00 | 0.00 | 0.00 | 78 | 1018.4 |
| 20260902030035 | 22 | 113 | 0.0 | 8.0 | 0.00 | 0.00 | 0.00 | 78 | 1018.4 |
| 20260902025515 | 22 | 92 | 3.2 | 11.3 | 0.00 | 0.00 | 0.00 | 78 | 1018.4 |
| 20260902025015 | 22 | 86 | 3.2 | 11.3 | 0.00 | 0.00 | 0.00 | 78 | 1018.4 |
| 20260902024515 | 22 | 96 | 1.6 | 6.4 | 0.00 | 0.00 | 0.00 | 78 | 1018.3 |
| 20260902024015 | 22 | 118 | 1.6 | 8.0 | 0.00 | 0.00 | 0.00 | 78 | 1018.4 |
| 20260902023515 | 22 | 85 | 1.6 | 8.0 | 0.00 | 0.00 | 0.00 | 78 | 1018.4 |
| 20260902023015 | 22 | 100 | 3.2 | 8.0 | 0.00 | 0.00 | 0.00 | 78 | 1018.4 |
| 20260902022515 | 22 | 102 | 3.2 | 6.4 | 0.00 | 0.00 | 0.00 | 78 | 1018.4 |
| 20260902022015 | 22 | 98 | 3.2 | 6.4 | 0.00 | 0.00 | 0.00 | 78 | 1018.4 |
| 20260902021515 | 22 | 119 | 1.6 | 4.8 | 0.00 | 0.00 | 0.00 | 78 | 1018.4 |
| 20260902021015 | 22 | 125 | 1.6 | 4.8 | 0.00 | 0.00 | 0.00 | 78 | 1018.4 |
| 20260902020515 | 22 | 114 | 1.6 | 6.4 | 0.00 | 0.00 | 0.00 | 78 | 1018.5 |
| 20260902020015 | 22 | 117 | 3.2 | 6.4 | 0.00 | 0.00 | 0.00 | 78 | 1018.5 |
| 20260902015515 | 22 | 105 | 1.6 | 6.4 | 0.00 | 0.00 | 0.00 | 78 | 1018.5 |
| 20260902015015 | 22 | 102 | 1.6 | 11.3 | 0.00 | 0.00 | 0.00 | 77 | 1018.5 |
| 20260902014515 | 22 | 109 | 4.8 | 11.3 | 0.00 | 0.00 | 0.00 | 77 | 1018.5 |
| 20260902014015 | 22 | 114 | 3.2 | 11.3 | 0.00 | 0.00 | 0.00 | 77 | 1018.5 |
| 20260902013515 | 22 | 80 | 1.6 | 4.8 | 0.00 | 0.00 | 0.00 | 77 | 1018.4 |
| 20260902013035 | 22 | 80 | 1.6 | 6.4 | 0.00 | 0.00 | 0.00 | 77 | 1018.5 |
| 20260902012515 | 22 | 100 | 1.6 | 6.4 | 0.00 | 0.00 | 0.00 | 77 | 1018.5 |
| 20260902012015 | 22 | 131 | 0.0 | 3.2 | 0.00 | 0.00 | 0.00 | 77 | 1018.4 |
| 20260902011515 | 22 | 74 | 0.0 | 4.8 | 0.00 | 0.00 | 0.00 | 77 | 1018.4 |
| 20260902011015 | 22 | 99 | 1.6 | 9.7 | 0.00 | 0.00 | 0.00 | 77 | 1018.4 |
| 20260902010515 | 22 | 91 | 3.2 | 9.7 | 0.00 | 0.00 | 0.00 | 77 | 1018.3 |
| 20260902010015 | 22 | 114 | 3.2 | 8.0 | 0.00 | 0.00 | 0.00 | 77 | 1018.3 |
| 20260902005535 | 22 | 113 | 3.2 | 8.0 | 0.00 | 0.00 | 0.00 | 77 | 1018.3 |
| 20260902005015 | 22 | 111 | 3.2 | 6.4 | 0.00 | 0.00 | 0.00 | 77 | 1018.3 |
| 20260902004515 | 22 | 83 | 1.6 | 6.4 | 0.00 | 0.00 | 0.00 | 77 | 1018.4 |
| 20260902004014 | 22 | 82 | 3.2 | 11.3 | 0.00 | 0.00 | 0.00 | 76 | 1018.5 |
| 20260902003515 | 22 | 75 | 4.8 | 11.3 | 0.00 | 0.00 | 0.00 | 76 | 1018.5 |
| 20260902003015 | 22 | 81 | 4.8 | 11.3 | 0.00 | 0.00 | 0.00 | 76 | 1018.6 |
| 20260902002514 | 22 | 73 | 3.2 | 11.3 | 0.00 | 0.00 | 0.00 | 76 | 1018.6 |
| 20260902002014 | 22 | 87 | 1.6 | 6.4 | 0.00 | 0.00 | 0.00 | 76 | 1018.6 |
| 20260902001515 | 22 | 87 | 3.2 | 6.4 | 0.00 | 0.00 | 0.00 | 76 | 1018.7 |
| 20260902001015 | 22 | 92 | 0.0 | 4.8 | 0.00 | 0.00 | 0.00 | 76 | 1018.6 |
| 20260902000515 | 22 | 119 | 0.0 | 4.8 | 0.00 | 0.00 | 0.00 | 76 | 1018.6 |
| 20260902000014 | 22 | 105 | 3.2 | 6.4 | 0.00 | 0.00 | 0.00 | 76 | 1018.6 |
| 20260901235515 | 22 | 101 | 3.2 | 9.7 | 0.00 | 0.00 | 0.00 | 77 | 1018.6 |
| 20260901235014 | 22 | 112 | 1.6 | 9.7 | 0.00 | 0.00 | 0.00 | 77 | 1018.6 |
| 20260901234514 | 22 | 96 | 3.2 | 8.0 | 0.00 | 0.00 | 0.00 | 78 | 1018.6 |
| 20260901234015 | 22 | 122 | 3.2 | 6.4 | 0.00 | 0.00 | 0.00 | 78 | 1018.6 |
| 20260901233515 | 22 | 122 | 3.2 | 6.4 | 0.00 | 0.00 | 0.00 | 79 | 1018.6 |
| 20260901233014 | 22 | 121 | 1.6 | 8.0 | 0.00 | 0.00 | 0.00 | 79 | 1018.6 |
| 20260901232517 | 22 | 105 | 3.2 | 8.0 | 0.00 | 0.00 | 0.00 | 79 | 1018.6 |
| 20260901232017 | 23 | 106 | 3.2 | 8.0 | 0.00 | 0.00 | 0.00 | 79 | 1018.7 |
| 20260901231516 | 23 | 104 | 3.2 | 9.7 | 0.00 | 0.00 | 0.00 | 79 | 1018.7 |
| 20260901231016 | 23 | 115 | 3.2 | 9.7 | 0.00 | 0.00 | 0.00 | 78 | 1018.7 |
| 20260901230536 | 23 | 89 | 3.2 | 8.0 | 0.00 | 0.00 | 0.00 | 78 | 1018.7 |
| 20260901230017 | 23 | 87 | 3.2 | 8.0 | 0.00 | 0.00 | 0.00 | 77 | 1018.7 |
| 20260901225517 | 23 | 91 | 1.6 | 6.4 | 0.00 | 0.00 | 0.00 | 77 | 1018.7 |
| 20260901225017 | 23 | 88 | 3.2 | 6.4 | 0.00 | 0.00 | 0.00 | 77 | 1018.8 |
| 20260901224517 | 23 | 76 | 3.2 | 6.4 | 0.00 | 0.00 | 0.00 | 77 | 1018.9 |
| 20260901224017 | 23 | 82 | 3.2 | 6.4 | 0.00 | 0.00 | 0.00 | 77 | 1018.8 |
| 20260901223516 | 23 | 114 | 1.6 | 6.4 | 0.00 | 0.00 | 0.00 | 77 | 1018.8 |
| 20260901223016 | 23 | 108 | 1.6 | 9.7 | 0.00 | 0.00 | 0.00 | 77 | 1018.7 |
| 20260901222516 | 23 | 116 | 3.2 | 9.7 | 0.00 | 0.00 | 0.00 | 77 | 1018.7 |
| 20260901222037 | 23 | 111 | 3.2 | 8.0 | 0.00 | 0.00 | 0.00 | 77 | 1018.7 |
| 20260901221517 | 23 | 123 | 3.2 | 6.4 | 0.00 | 0.00 | 0.00 | 77 | 1018.6 |
| 20260901221016 | 23 | 109 | 1.6 | 6.4 | 0.00 | 0.00 | 0.00 | 77 | 1018.5 |
| 20260901220516 | 23 | 103 | 1.6 | 6.4 | 0.00 | 0.00 | 0.00 | 77 | 1018.4 |
| 20260901220016 | 23 | 92 | 3.2 | 9.7 | 0.00 | 0.00 | 0.00 | 77 | 1018.4 |
| 20260901215515 | 23 | 117 | 3.2 | 9.7 | 0.00 | 0.00 | 0.00 | 77 | 1018.4 |
| 20260901215014 | 23 | 115 | 1.6 | 6.4 | 0.00 | 0.00 | 0.00 | 77 | 1018.4 |
| 20260901214535 | 23 | 97 | 3.2 | 8.0 | 0.00 | 0.00 | 0.00 | 77 | 1018.4 |
| 20260901214014 | 23 | 99 | 3.2 | 8.0 | 0.00 | 0.00 | 0.00 | 78 | 1018.4 |
| 20260901213515 | 23 | 101 | 3.2 | 9.7 | 0.00 | 0.00 | 0.00 | 78 | 1018.5 |
| 20260901213014 | 23 | 105 | 3.2 | 11.3 | 0.00 | 0.00 | 0.00 | 79 | 1018.5 |
| 20260901212514 | 23 | 116 | 3.2 | 11.3 | 0.00 | 0.00 | 0.00 | 79 | 1018.4 |
| 20260901212015 | 23 | 96 | 3.2 | 11.3 | 0.00 | 0.00 | 0.00 | 79 | 1018.4 |
| 20260901211534 | 23 | 98 | 3.2 | 11.3 | 0.00 | 0.00 | 0.00 | 80 | 1018.4 |
| 20260901211014 | 23 | 110 | 3.2 | 6.4 | 0.00 | 0.00 | 0.00 | 80 | 1018.4 |
| 20260901210535 | 23 | 125 | 3.2 | 6.4 | 0.00 | 0.00 | 0.00 | 80 | 1018.4 |
| 20260901210016 | 23 | 120 | 1.6 | 11.3 | 0.00 | 0.00 | 0.00 | 80 | 1018.5 |
| 20260901205517 | 23 | 96 | 3.2 | 11.3 | 0.00 | 0.00 | 0.00 | 80 | 1018.5 |
| 20260901205017 | 23 | 132 | 1.6 | 6.4 | 0.00 | 0.00 | 0.00 | 80 | 1018.5 |
| 20260901204518 | 23 | 107 | 1.6 | 8.0 | 0.00 | 0.00 | 0.00 | 80 | 1018.5 |
| 20260901204016 | 23 | 111 | 1.6 | 9.7 | 0.00 | 0.00 | 0.00 | 80 | 1018.5 |
| 20260901203516 | 23 | 131 | 3.2 | 9.7 | 0.00 | 0.00 | 0.00 | 80 | 1018.6 |
| 20260901203017 | 23 | 127 | 1.6 | 4.8 | 0.00 | 0.00 | 0.00 | 80 | 1018.6 |
| 20260901202517 | 23 | 140 | 1.6 | 4.8 | 0.00 | 0.00 | 0.00 | 80 | 1018.6 |
| 20260901202016 | 23 | 119 | 3.2 | 6.4 | 0.00 | 0.00 | 0.00 | 80 | 1018.5 |
| 20260901201557 | 24 | 119 | 3.2 | 6.4 | 0.00 | 0.00 | 0.00 | 80 | 1018.6 |
| 20260901201017 | 24 | 121 | 3.2 | 6.4 | 0.00 | 0.00 | 0.00 | 80 | 1018.6 |
| 20260901200557 | 24 | 130 | 3.2 | 6.4 | 0.00 | 0.00 | 0.00 | 81 | 1018.6 |
| 20260901200016 | 24 | 110 | 1.6 | 4.8 | 0.00 | 0.00 | 0.00 | 81 | 1018.6 |
| 20260901195516 | 24 | 128 | 1.6 | 4.8 | 0.00 | 0.00 | 0.00 | 82 | 1018.6 |
| 20260901195016 | 24 | 129 | 1.6 | 6.4 | 0.00 | 0.00 | 0.00 | 82 | 1018.5 |
| 20260901194517 | 25 | 73 | 1.6 | 6.4 | 0.00 | 0.00 | 0.00 | 82 | 1018.5 |
| 20260901194035 | 25 | 73 | 0.0 | 4.8 | 0.00 | 0.00 | 0.00 | 82 | 1018.5 |
| 20260901193516 | 25 | 83 | 1.6 | 8.0 | 0.00 | 0.00 | 0.00 | 82 | 1018.4 |
| 20260901193017 | 25 | 80 | 1.6 | 8.0 | 0.00 | 0.00 | 0.00 | 81 | 1018.4 |
| 20260901192517 | 25 | 83 | 1.6 | 6.4 | 0.00 | 0.00 | 0.00 | 81 | 1018.4 |
| 20260901192017 | 25 | 70 | 1.6 | 6.4 | 0.00 | 0.00 | 0.00 | 81 | 1018.4 |
| 20260901191536 | 25 | 93 | 0.0 | 3.2 | 0.00 | 0.00 | 0.00 | 81 | 1018.2 |
| 20260901191016 | 25 | 65 | 0.0 | 4.8 | 0.00 | 0.00 | 0.00 | 81 | 1018.1 |
| 20260901190514 | 25 | 70 | 1.6 | 4.8 | 0.00 | 0.00 | 0.00 | 80 | 1018.0 |
| 20260901190016 | 25 | 63 | 1.6 | 4.8 | 0.00 | 0.00 | 0.00 | 80 | 1017.9 |
| 20260901185516 | 25 | 87 | 1.6 | 4.8 | 0.00 | 0.00 | 0.00 | 80 | 1017.8 |
| 20260901185016 | 26 | 89 | 1.6 | 4.8 | 0.00 | 0.00 | 0.00 | 80 | 1017.8 |
| 20260901184516 | 26 | 124 | 1.6 | 4.8 | 0.00 | 0.00 | 0.00 | 80 | 1017.7 |
| 20260901184116 | 26 | 133 | 1.6 | 4.8 | 0.00 | 0.00 | 0.00 | 80 | 1017.7 |
| 20260901183516 | 26 | 0.0 | 4.8 | 0.00 | 0.00 | 0.00 | 80 | 1017.6 | |
| 20260901183016 | 26 | 68 | 0.0 | 4.8 | 0.00 | 0.00 | 0.00 | 79 | 1017.6 |
| 20260901182516 | 26 | 116 | 1.6 | 4.8 | 0.00 | 0.00 | 0.00 | 79 | 1017.6 |
| 20260901182016 | 26 | 162 | 0.0 | 4.8 | 0.00 | 0.00 | 0.00 | 79 | 1017.6 |
| 20260901181516 | 26 | 152 | 1.6 | 4.8 | 0.00 | 0.00 | 0.00 | 78 | 1017.5 |
| 20260901181016 | 26 | 0.0 | 3.2 | 0.00 | 0.00 | 0.00 | 78 | 1017.5 | |
| 20260901180516 | 26 | 119 | 0.0 | 3.2 | 0.00 | 0.00 | 0.00 | 78 | 1017.5 |
| 20260901180016 | 26 | 121 | 0.0 | 3.2 | 0.00 | 0.00 | 0.00 | 78 | 1017.4 |
| 20260901175516 | 27 | 112 | 0.0 | 6.4 | 0.00 | 0.00 | 0.00 | 77 | 1017.3 |
| 20260901175016 | 27 | 164 | 1.6 | 8.0 | 0.00 | 0.00 | 0.00 | 77 | 1017.3 |
| 20260901174557 | 27 | 177 | 3.2 | 8.0 | 0.00 | 0.00 | 0.00 | 77 | 1017.3 |
| 20260901174018 | 27 | 162 | 1.6 | 6.4 | 0.00 | 0.00 | 0.00 | 76 | 1017.2 |
| 20260901173516 | 27 | 146 | 3.2 | 9.7 | 0.00 | 0.00 | 0.00 | 76 | 1017.1 |
| 20260901173016 | 27 | 117 | 3.2 | 9.7 | 0.00 | 0.00 | 0.00 | 76 | 1017.1 |
| 20260901172516 | 27 | 139 | 1.6 | 6.4 | 0.00 | 0.00 | 0.00 | 75 | 1017.2 |
| 20260901172016 | 27 | 155 | 1.6 | 9.7 | 0.00 | 0.00 | 0.00 | 75 | 1017.2 |
| 20260901171516 | 27 | 180 | 3.2 | 11.3 | 0.00 | 0.00 | 0.00 | 74 | 1017.2 |
| 20260901171017 | 27 | 137 | 4.8 | 11.3 | 0.00 | 0.00 | 0.00 | 74 | 1017.2 |
| 20260901170516 | 27 | 147 | 1.6 | 11.3 | 0.00 | 0.00 | 0.00 | 73 | 1017.2 |
| 20260901170016 | 28 | 138 | 3.2 | 11.3 | 0.00 | 0.00 | 0.00 | 72 | 1017.3 |
| 20260901165516 | 28 | 138 | 3.2 | 11.3 | 0.00 | 0.00 | 0.00 | 72 | 1017.3 |
| 20260901165016 | 28 | 124 | 3.2 | 12.9 | 0.00 | 0.00 | 0.00 | 72 | 1017.2 |
| 20260901164536 | 28 | 128 | 4.8 | 12.9 | 0.00 | 0.00 | 0.00 | 71 | 1017.3 |
| 20260901164016 | 28 | 117 | 4.8 | 11.3 | 0.00 | 0.00 | 0.00 | 71 | 1017.3 |
| 20260901163516 | 28 | 160 | 3.2 | 11.3 | 0.00 | 0.00 | 0.00 | 70 | 1017.3 |
| 20260901163016 | 28 | 127 | 4.8 | 11.3 | 0.00 | 0.00 | 0.00 | 70 | 1017.3 |
| 20260901162516 | 28 | 137 | 4.8 | 11.3 | 0.00 | 0.00 | 0.00 | 71 | 1017.3 |
| 20260901162016 | 28 | 131 | 4.8 | 9.7 | 0.00 | 0.00 | 0.00 | 72 | 1017.3 |
| 20260901161516 | 28 | 138 | 3.2 | 11.3 | 0.00 | 0.00 | 0.00 | 72 | 1017.3 |
| 20260901161017 | 28 | 142 | 4.8 | 14.5 | 0.00 | 0.00 | 0.00 | 72 | 1017.3 |
| 20260901160516 | 28 | 187 | 8.0 | 14.5 | 0.00 | 0.00 | 0.00 | 71 | 1017.4 |
| 20260901160016 | 28 | 193 | 8.0 | 14.5 | 0.00 | 0.00 | 0.00 | 71 | 1017.3 |
| 20260901155516 | 28 | 175 | 3.2 | 9.7 | 0.00 | 0.00 | 0.00 | 72 | 1017.3 |
| 20260901155036 | 27 | 148 | 3.2 | 11.3 | 0.00 | 0.00 | 0.00 | 73 | 1017.4 |
| 20260901154516 | 27 | 163 | 4.8 | 11.3 | 0.00 | 0.00 | 0.00 | 73 | 1017.4 |
| 20260901154016 | 27 | 188 | 4.8 | 14.5 | 0.00 | 0.00 | 0.00 | 74 | 1017.4 |